This demonstration page uses our WeatherBlox Daily Observations layout. Learn more.

Left ArrowRight Arrow

36.17497, -115.13722

Hourly Observations for January 16, 2016

Temp ( °F °C ) Dew Point ( °F °C ) Humidity (%) Winds ( mph kmh ) Pressure ( in mb ) Visibility ( mi km ) Precip ( " mm )
12:53 am 00:53 Clear 44 6.7 25 -3.9 47 47 WSW 5 7 30.19 1022 10 16 N/A
1:53 am 01:53 Clear 41 5 25 -3.9 53 53 N N/A 30.19 1022 10 16 N/A
2:53 am 02:53 Clear 40 4.4 25 -3.9 55 55 VRB 6 9 30.20 1023 10 16 N/A
3:53 am 03:53 Clear 39 3.9 26 -3.3 60 60 N 6 9 30.20 1023 10 16 N/A
4:53 am 04:53 Clear 39 3.9 26 -3.3 60 60 NNW 3 6 30.21 1023 10 16 N/A
5:53 am 05:53 Clear 38 3.3 26 -3.3 62 62 NNW 3 6 30.23 1024 10 16 N/A
6:53 am 06:53 Mostly Sunny 39 3.9 26 -3.3 60 60 N N/A 30.24 1024 10 16 N/A
7:53 am 07:53 Cloudy 41 5 28 -2.2 60 60 N 3 6 30.27 1025 10 16 N/A
8:53 am 08:53 Mostly Cloudy 44 6.7 29 -1.7 55 55 N N/A 30.28 1025 10 16 N/A
9:53 am 09:53 Mostly Sunny 46 7.8 29 -1.7 51 51 N N/A 30.29 1026 10 16 N/A
10:53 am 10:53 Sunny 47 8.3 29 -1.7 50 50 ESE 3 6 30.25 1025 10 16 N/A
11:53 am 11:53 Sunny 48 8.9 28 -2.2 46 46 WSW 3 6 30.25 1025 10 16 N/A
12:53 pm 12:53 Sunny 50 10 28 -2.2 43 43 N N/A 30.22 1023 10 16 N/A
1:53 pm 13:53 Sunny 51 10.6 27 -2.8 39 39 E 5 7 30.19 1023 10 16 N/A
2:53 pm 14:53 Sunny 51 10.6 30 -1.1 44 44 E 5 7 30.20 1023 10 16 N/A
3:53 pm 15:53 Sunny 51 10.6 29 -1.7 43 43 E 3 6 30.21 1023 10 16 N/A
4:53 pm 16:53 Clear 50 10 29 -1.7 44 44 S 5 7 30.21 1023 10 16 N/A
5:53 pm 17:53 Clear 48 8.9 30 -1.1 50 50 N N/A 30.24 1024 10 16 N/A
6:53 pm 18:53 Clear 46 7.8 31 -0.6 56 56 ENE 3 6 30.25 1024 10 16 N/A
7:53 pm 19:53 Clear 45 7.2 31 -0.6 58 58 N N/A 30.27 1025 10 16 N/A
8:53 pm 20:53 Clear 44 6.7 31 -0.6 60 60 NW 6 9 30.28 1026 10 16 N/A
9:53 pm 21:53 Clear 43 6.1 31 -0.6 63 63 NW 6 9 30.29 1026 10 16 N/A
10:53 pm 22:53 Clear 42 5.6 31 -0.6 65 65 WNW 7 11 30.30 1026 10 16 N/A
11:53 pm 23:53 Clear 41 5 30 -1.1 65 65 WNW 5 7 30.28 1026 10 16 N/A

Powered by AerisWeather